VJT440 LFMD-EGLF

Flight info

Callsign VJT440
Flight time 1h 40m
Altitude 40000
Route PERUS DCT ROMAM A6 DANBO A2 BUSIL DCT OKASI DCT ELDAX
Aircraft CL60/M-SBDE1E2E3FGHIJ1J4J5J7M3RWXYZ/LB1V1D1

Departure

Time 2026-04-22 09:43
Airport Cannes Mandelieu Airport (LFMD)

Arrival

Time 2026-04-22 11:23
Airport Farnborough Airport (EGLF)
Time Latitude Longitude Altitude Speed Heading
2026-04-22 08:56 43.54617 6.95352 25 ft 0 kts 172°
2026-04-22 09:35 43.54616 6.95352 24 ft 2 kts 175°
2026-04-22 09:36 43.54590 6.95329 24 ft 2 kts 238°
2026-04-22 09:36 43.54592 6.95297 24 ft 5 kts 321°
2026-04-22 09:36 43.54631 6.95289 25 ft 6 kts 347°
2026-04-22 09:36 43.54687 6.95276 25 ft 10 kts 353°
2026-04-22 09:37 43.54768 6.95262 25 ft 13 kts 352°
2026-04-22 09:37 43.54874 6.95244 25 ft 16 kts 354°
2026-04-22 09:37 43.54996 6.95221 25 ft 15 kts 351°
2026-04-22 09:37 43.55093 6.95203 25 ft 15 kts 353°
2026-04-22 09:38 43.55207 6.95183 25 ft 18 kts 352°
2026-04-22 09:38 43.55333 6.95161 25 ft 13 kts 352°
2026-04-22 09:38 43.55403 6.95149 25 ft 11 kts 353°
2026-04-22 09:38 43.55460 6.95138 25 ft 6 kts 353°
2026-04-22 09:39 43.55485 6.95082 25 ft 10 kts 261°
2026-04-22 09:39 43.55489 6.94997 25 ft 9 kts 258°
2026-04-22 09:39 43.55451 6.94970 25 ft 5 kts 172°
2026-04-22 09:39 43.55444 6.94972 25 ft 0 kts 172°
2026-04-22 09:42 43.55316 6.94996 25 ft 59 kts 172°
2026-04-22 09:42 43.54568 6.95122 63 ft 149 kts 170°
2026-04-22 09:43 43.53426 6.95299 689 ft 182 kts 170°
2026-04-22 09:43 43.52051 6.95733 1391 ft 220 kts 156°
2026-04-22 09:43 43.50634 6.96554 1899 ft 222 kts 150°
2026-04-22 09:43 43.49385 6.97764 1980 ft 215 kts 129°
2026-04-22 09:44 43.48389 6.99310 1981 ft 217 kts 127°
2026-04-22 09:44 43.47352 7.00941 1971 ft 232 kts 128°
2026-04-22 09:44 43.46269 7.02632 1969 ft 235 kts 128°
2026-04-22 09:44 43.45245 7.04453 2079 ft 251 kts 112°
2026-04-22 09:45 43.45043 7.06768 3443 ft 256 kts 77°
2026-04-22 09:45 43.45802 7.08866 5004 ft 256 kts 47°
2026-04-22 09:45 43.47284 7.10174 6331 ft 265 kts 18°
2026-04-22 09:45 43.49068 7.10782 7637 ft 274 kts
2026-04-22 09:46 43.50972 7.10653 8508 ft 280 kts 343°
2026-04-22 09:46 43.52720 7.09515 8926 ft 278 kts 327°
2026-04-22 09:46 43.54393 7.08117 9047 ft 274 kts 327°
2026-04-22 09:46 43.56014 7.06770 9060 ft 271 kts 327°
2026-04-22 09:47 43.57629 7.05428 9061 ft 270 kts 327°
2026-04-22 09:47 43.59237 7.04090 9059 ft 270 kts 327°
2026-04-22 09:47 43.60871 7.02730 9057 ft 271 kts 327°
2026-04-22 09:47 43.62551 7.01327 9608 ft 296 kts 327°
2026-04-22 09:48 43.64240 6.99920 11393 ft 285 kts 327°
2026-04-22 09:48 43.65861 6.98571 13083 ft 274 kts 326°
2026-04-22 09:48 43.67469 6.97230 14451 ft 272 kts 325°
2026-04-22 09:48 43.69075 6.95887 15572 ft 277 kts 325°
2026-04-22 09:49 43.70736 6.94496 16621 ft 283 kts 325°
2026-04-22 09:49 43.72421 6.93084 17615 ft 288 kts 325°
2026-04-22 09:49 43.74137 6.91647 18620 ft 292 kts 325°
2026-04-22 09:49 43.75870 6.90195 19595 ft 295 kts 325°
2026-04-22 09:50 43.77630 6.88719 20482 ft 301 kts 326°
2026-04-22 09:50 43.79411 6.87226 21385 ft 304 kts 326°
2026-04-22 09:50 43.81240 6.85691 22303 ft 307 kts 326°
2026-04-22 09:50 43.83065 6.84158 23128 ft 311 kts 326°
2026-04-22 09:51 43.84929 6.82592 23960 ft 316 kts 326°
2026-04-22 09:51 43.86840 6.80986 24823 ft 319 kts 326°
2026-04-22 09:51 43.88759 6.79371 25578 ft 324 kts 326°
2026-04-22 09:51 43.90676 6.77756 26347 ft 327 kts 326°
2026-04-22 09:52 43.92616 6.76097 27074 ft 330 kts 323°
2026-04-22 09:52 43.94273 6.73921 27749 ft 329 kts 305°
2026-04-22 09:52 43.95365 6.71100 28393 ft 333 kts 296°
2026-04-22 09:52 43.96351 6.68127 29073 ft 336 kts 295°
2026-04-22 09:53 43.97339 6.65164 29673 ft 339 kts 295°
2026-04-22 09:53 43.98334 6.62179 30303 ft 341 kts 296°
2026-04-22 09:53 43.99352 6.59118 30893 ft 344 kts 296°
2026-04-22 09:53 44.00362 6.56075 31454 ft 347 kts 295°
2026-04-22 09:54 44.01373 6.53025 31924 ft 351 kts 296°
2026-04-22 09:54 44.02412 6.49887 32404 ft 354 kts 296°
2026-04-22 09:54 44.03442 6.46772 32860 ft 357 kts 295°
2026-04-22 09:54 44.04485 6.43612 33348 ft 358 kts 295°
2026-04-22 09:55 44.05516 6.40481 33772 ft 360 kts 296°
2026-04-22 09:55 44.06564 6.37299 34220 ft 361 kts 295°
2026-04-22 09:55 44.07612 6.34110 34736 ft 360 kts 295°
2026-04-22 09:55 44.08649 6.30948 35168 ft 359 kts 295°
2026-04-22 09:56 44.09698 6.27750 35509 ft 360 kts 295°
2026-04-22 09:56 44.10696 6.24699 35823 ft 361 kts 295°
2026-04-22 09:56 44.11743 6.21501 36145 ft 362 kts 295°
2026-04-22 09:56 44.12788 6.18297 36473 ft 363 kts 295°
2026-04-22 09:57 44.13859 6.15074 36782 ft 363 kts 298°
2026-04-22 09:57 44.15151 6.12103 37156 ft 363 kts 306°
2026-04-22 09:57 44.16775 6.09423 37514 ft 364 kts 314°
2026-04-22 09:57 44.18710 6.07079 37786 ft 366 kts 322°
2026-04-22 09:58 44.20814 6.05033 38085 ft 367 kts 324°
2026-04-22 09:58 44.22928 6.03034 38320 ft 368 kts 323°
2026-04-22 09:58 44.25045 6.00972 38616 ft 368 kts 324°
2026-04-22 09:58 44.27150 5.98918 38897 ft 368 kts 324°
2026-04-22 09:59 44.29262 5.96857 39166 ft 368 kts 324°
2026-04-22 09:59 44.31355 5.94811 39428 ft 367 kts 324°
2026-04-22 09:59 44.33453 5.92761 39700 ft 367 kts 324°
2026-04-22 09:59 44.35571 5.90688 39891 ft 368 kts 324°
2026-04-22 10:00 44.37659 5.88644 40045 ft 370 kts 324°
2026-04-22 10:00 44.39812 5.86533 40042 ft 375 kts 324°
2026-04-22 10:00 44.44147 5.82279 40043 ft 385 kts 324°
2026-04-22 10:01 44.48582 5.77919 40054 ft 393 kts 324°
2026-04-22 10:01 44.53136 5.73433 40047 ft 402 kts 324°
2026-04-22 10:02 44.57730 5.68900 40050 ft 408 kts 324°
2026-04-22 10:02 44.62432 5.64254 40065 ft 412 kts 325°
2026-04-22 10:03 44.67148 5.59583 40073 ft 414 kts 324°
2026-04-22 10:03 44.71876 5.54890 40069 ft 413 kts 325°
2026-04-22 10:04 44.76593 5.50198 40057 ft 412 kts 324°
2026-04-22 10:04 44.81258 5.45548 40066 ft 410 kts 325°
2026-04-22 10:05 44.85930 5.40882 40063 ft 410 kts 324°
2026-04-22 10:05 44.90591 5.36217 40061 ft 411 kts 325°
2026-04-22 10:06 44.95250 5.31546 40063 ft 410 kts 324°
2026-04-22 10:06 44.99909 5.26863 40055 ft 409 kts 324°
2026-04-22 10:07 45.04530 5.22211 40045 ft 409 kts 324°
2026-04-22 10:07 45.09431 5.18065 40056 ft 410 kts 335°
2026-04-22 10:08 45.14924 5.15891 40047 ft 413 kts 349°
2026-04-22 10:08 45.20705 5.15182 40059 ft 414 kts 352°
2026-04-22 10:09 45.26457 5.14543 40056 ft 412 kts 352°
2026-04-22 10:09 45.32211 5.13899 40054 ft 413 kts 352°
2026-04-22 10:10 45.37930 5.13257 40063 ft 413 kts 352°
2026-04-22 10:10 45.43686 5.12609 40062 ft 413 kts 352°
2026-04-22 10:11 45.49442 5.11959 40055 ft 413 kts 352°
2026-04-22 10:11 45.55181 5.11308 40071 ft 412 kts 352°
2026-04-22 10:12 45.60786 5.10671 40067 ft 412 kts 352°
2026-04-22 10:12 45.66548 5.10016 40066 ft 411 kts 352°
2026-04-22 10:13 45.72332 5.09356 40063 ft 411 kts 352°
2026-04-22 10:13 45.78042 5.08488 40068 ft 410 kts 349°
2026-04-22 10:14 45.83733 5.07455 40073 ft 410 kts 349°
2026-04-22 10:14 45.89415 5.06324 40067 ft 408 kts 345°
2026-04-22 10:15 45.94725 5.03531 40068 ft 404 kts 330°
2026-04-22 10:15 45.99523 4.99287 40059 ft 403 kts 327°
2026-04-22 10:16 46.04278 4.95009 40042 ft 402 kts 328°
2026-04-22 10:16 46.09027 4.90724 40055 ft 402 kts 327°
2026-04-22 10:17 46.13792 4.86415 40050 ft 403 kts 327°
2026-04-22 10:17 46.18513 4.82135 40048 ft 403 kts 327°
2026-04-22 10:18 46.23256 4.77823 40052 ft 403 kts 328°
2026-04-22 10:18 46.28019 4.73484 40061 ft 404 kts 327°
2026-04-22 10:19 46.32657 4.68864 40060 ft 404 kts 324°
2026-04-22 10:19 46.37197 4.64118 40047 ft 405 kts 324°
2026-04-22 10:20 46.41761 4.59340 40056 ft 404 kts 324°
2026-04-22 10:20 46.46347 4.54531 40047 ft 404 kts 324°
2026-04-22 10:21 46.50961 4.49681 40050 ft 405 kts 324°
2026-04-22 10:21 46.55566 4.44832 40057 ft 405 kts 324°
2026-04-22 10:22 46.60144 4.40001 40066 ft 405 kts 324°
2026-04-22 10:22 46.64731 4.35152 40054 ft 406 kts 324°
2026-04-22 10:23 46.69201 4.30417 40072 ft 407 kts 323°
2026-04-22 10:23 46.73832 4.25499 40067 ft 407 kts 323°
2026-04-22 10:24 46.78446 4.20589 40074 ft 408 kts 323°
2026-04-22 10:24 46.83077 4.15652 40061 ft 408 kts 323°
2026-04-22 10:25 46.87693 4.10721 40085 ft 408 kts 324°
2026-04-22 10:25 46.92331 4.05753 40067 ft 408 kts 323°
2026-04-22 10:26 46.96976 4.00768 40056 ft 408 kts 323°
2026-04-22 10:26 47.01582 3.95815 40070 ft 408 kts 323°
2026-04-22 10:27 47.06196 3.90845 40070 ft 409 kts 323°
2026-04-22 10:27 47.10779 3.85894 40065 ft 410 kts 323°
2026-04-22 10:28 47.15252 3.81050 40085 ft 408 kts 323°
2026-04-22 10:28 47.19809 3.76107 40059 ft 409 kts 323°
2026-04-22 10:29 47.24411 3.71102 40085 ft 407 kts 324°
2026-04-22 10:29 47.29042 3.66055 40080 ft 408 kts 324°
2026-04-22 10:30 47.33614 3.61061 40090 ft 409 kts 323°
2026-04-22 10:30 47.38248 3.55988 40107 ft 409 kts 324°
2026-04-22 10:31 47.42835 3.50955 40082 ft 409 kts 324°
2026-04-22 10:31 47.47419 3.45915 40097 ft 408 kts 323°
2026-04-22 10:32 47.52027 3.40836 40089 ft 409 kts 323°
2026-04-22 10:32 47.56616 3.35768 40110 ft 408 kts 323°
2026-04-22 10:33 47.61121 3.30781 40098 ft 409 kts 323°
2026-04-22 10:33 47.65711 3.25689 40106 ft 409 kts 323°
2026-04-22 10:34 47.70292 3.20595 40124 ft 407 kts 323°
2026-04-22 10:34 47.74858 3.15506 40097 ft 409 kts 323°
2026-04-22 10:35 47.79470 3.10356 40110 ft 410 kts 323°
2026-04-22 10:35 47.84091 3.05184 40102 ft 409 kts 323°
2026-04-22 10:36 47.88674 3.00042 40097 ft 409 kts 323°
2026-04-22 10:36 47.93250 2.94896 40104 ft 407 kts 323°
2026-04-22 10:37 48.00040 2.87239 40105 ft 408 kts 323°
2026-04-22 10:38 48.04596 2.82086 40147 ft 407 kts 323°
2026-04-22 10:38 48.09186 2.77076 40110 ft 411 kts 329°
2026-04-22 10:39 48.14172 2.72906 40144 ft 410 kts 330°
2026-04-22 10:39 48.19112 2.68792 40128 ft 413 kts 330°
2026-04-22 10:40 48.24125 2.64604 40162 ft 412 kts 330°
2026-04-22 10:40 48.29191 2.60361 40139 ft 412 kts 330°
2026-04-22 10:41 48.34232 2.56127 40123 ft 412 kts 330°
2026-04-22 10:41 48.39289 2.51868 40152 ft 413 kts 330°
2026-04-22 10:42 48.44339 2.47602 40147 ft 413 kts 330°
2026-04-22 10:42 48.49386 2.43329 40160 ft 415 kts 330°
2026-04-22 10:43 48.54456 2.39027 40158 ft 415 kts 330°
2026-04-22 10:43 48.59542 2.34699 40170 ft 415 kts 329°
2026-04-22 10:44 48.64549 2.30428 40190 ft 415 kts 329°
2026-04-22 10:44 48.69600 2.26109 40171 ft 417 kts 329°
2026-04-22 10:45 48.74596 2.21823 40166 ft 418 kts 329°
2026-04-22 10:45 48.79644 2.17483 40178 ft 417 kts 329°
2026-04-22 10:46 48.84658 2.13163 40168 ft 417 kts 329°
2026-04-22 10:46 48.89766 2.08752 40166 ft 415 kts 329°
2026-04-22 10:47 48.94807 2.04388 40181 ft 416 kts 329°
2026-04-22 10:47 48.99862 2.00002 40186 ft 416 kts 329°
2026-04-22 10:48 49.04905 1.95617 40196 ft 416 kts 329°
2026-04-22 10:48 49.09980 1.91193 40190 ft 417 kts 329°
2026-04-22 10:49 49.14984 1.86820 40201 ft 417 kts 329°
2026-04-22 10:49 49.20038 1.82395 40180 ft 416 kts 329°
2026-04-22 10:50 49.25113 1.77939 40208 ft 418 kts 329°
2026-04-22 10:50 49.30182 1.73478 40187 ft 420 kts 329°
2026-04-22 10:51 49.35264 1.68996 40199 ft 418 kts 329°
2026-04-22 10:51 49.40295 1.64548 40210 ft 419 kts 329°
2026-04-22 10:52 49.45358 1.60061 40194 ft 420 kts 329°
2026-04-22 10:52 49.50434 1.55553 39918 ft 417 kts 329°
2026-04-22 10:52 49.52935 1.53327 39376 ft 412 kts 329°
2026-04-22 10:53 49.55376 1.51154 38862 ft 408 kts 329°
2026-04-22 10:53 49.57855 1.48945 38325 ft 403 kts 329°
2026-04-22 10:53 49.60246 1.46810 37786 ft 400 kts 328°
2026-04-22 10:53 49.62648 1.44664 37264 ft 395 kts 328°
2026-04-22 10:54 49.65034 1.42529 36767 ft 389 kts 328°
2026-04-22 10:54 49.67368 1.40440 36276 ft 386 kts 328°
2026-04-22 10:54 49.69677 1.38369 35719 ft 385 kts 327°
2026-04-22 10:54 49.71987 1.36295 35230 ft 383 kts 327°
2026-04-22 10:55 49.74295 1.34221 34699 ft 381 kts 326°
2026-04-22 10:55 49.76548 1.32194 34205 ft 376 kts 327°
2026-04-22 10:55 49.78802 1.30165 33718 ft 371 kts 327°
2026-04-22 10:55 49.81040 1.28147 33229 ft 366 kts 327°
2026-04-22 10:56 49.83208 1.26190 32754 ft 362 kts 327°
2026-04-22 10:56 49.85391 1.24217 32265 ft 358 kts 327°
2026-04-22 10:56 49.87511 1.22299 31804 ft 354 kts 328°
2026-04-22 10:56 49.89616 1.20393 31338 ft 350 kts 328°
2026-04-22 10:57 49.91724 1.18480 30871 ft 346 kts 328°
2026-04-22 10:57 49.93781 1.16608 30415 ft 343 kts 328°
2026-04-22 10:57 49.95835 1.14734 29973 ft 341 kts 328°
2026-04-22 10:57 49.97875 1.12875 29520 ft 340 kts 328°
2026-04-22 10:58 49.99911 1.11022 29076 ft 339 kts 328°
2026-04-22 10:58 50.01944 1.09170 28624 ft 337 kts 328°
2026-04-22 10:58 50.03949 1.07343 28175 ft 335 kts 328°
2026-04-22 10:58 50.05952 1.05516 27738 ft 333 kts 329°
2026-04-22 10:59 50.07972 1.03671 27295 ft 332 kts 329°
2026-04-22 10:59 50.09945 1.01867 26859 ft 330 kts 329°
2026-04-22 10:59 50.11842 1.00130 26437 ft 328 kts 329°
2026-04-22 10:59 50.13822 0.98316 26001 ft 326 kts 329°
2026-04-22 11:00 50.15781 0.96522 25567 ft 324 kts 330°
2026-04-22 11:00 50.17674 0.94787 25151 ft 323 kts 330°
2026-04-22 11:00 50.19604 0.92998 24739 ft 321 kts 328°
2026-04-22 11:00 50.21215 0.90605 24283 ft 324 kts 308°
2026-04-22 11:01 50.22438 0.87660 23849 ft 322 kts 306°
2026-04-22 11:01 50.23649 0.84714 23444 ft 321 kts 306°
2026-04-22 11:01 50.24862 0.81769 23046 ft 321 kts 306°
2026-04-22 11:01 50.26071 0.78827 22653 ft 321 kts 306°
2026-04-22 11:02 50.27266 0.75919 22264 ft 321 kts 306°
2026-04-22 11:02 50.28470 0.72982 21868 ft 321 kts 306°
2026-04-22 11:02 50.29670 0.70050 21479 ft 321 kts 306°
2026-04-22 11:02 50.30868 0.67121 21089 ft 321 kts 306°
2026-04-22 11:03 50.32082 0.64149 20701 ft 321 kts 306°
2026-04-22 11:03 50.33282 0.61205 20316 ft 321 kts 306°
2026-04-22 11:03 50.34475 0.58278 19936 ft 321 kts 306°
2026-04-22 11:03 50.35675 0.55328 19552 ft 321 kts 306°
2026-04-22 11:04 50.36872 0.52380 19171 ft 321 kts 306°
2026-04-22 11:04 50.38063 0.49445 18796 ft 321 kts 306°
2026-04-22 11:04 50.39255 0.46504 18419 ft 321 kts 306°
2026-04-22 11:04 50.40453 0.43546 18050 ft 321 kts 306°
2026-04-22 11:05 50.41641 0.40607 17680 ft 320 kts 306°
2026-04-22 11:05 50.42831 0.37658 17309 ft 320 kts 306°
2026-04-22 11:05 50.44014 0.34726 16947 ft 320 kts 305°
2026-04-22 11:05 50.45221 0.31733 16580 ft 320 kts 304°
2026-04-22 11:06 50.46402 0.28798 16217 ft 319 kts 304°
2026-04-22 11:06 50.47579 0.25869 15857 ft 319 kts 304°
2026-04-22 11:06 50.48756 0.22938 15497 ft 318 kts 304°
2026-04-22 11:06 50.49944 0.19974 15135 ft 318 kts 304°
2026-04-22 11:07 50.51110 0.17064 14779 ft 318 kts 304°
2026-04-22 11:07 50.52284 0.14132 14421 ft 317 kts 304°
2026-04-22 11:07 50.53464 0.11179 14062 ft 317 kts 304°
2026-04-22 11:07 50.54635 0.08246 13793 ft 314 kts 303°
2026-04-22 11:08 50.55781 0.05369 13667 ft 315 kts 303°
2026-04-22 11:08 50.56947 0.02443 13544 ft 317 kts 304°
2026-04-22 11:08 50.58133 -0.00537 13419 ft 317 kts 304°
2026-04-22 11:08 50.59301 -0.03476 13296 ft 318 kts 304°
2026-04-22 11:09 50.60479 -0.06445 13175 ft 317 kts 304°
2026-04-22 11:09 50.61644 -0.09383 13054 ft 317 kts 304°
2026-04-22 11:09 50.62805 -0.12314 12937 ft 317 kts 304°
2026-04-22 11:09 50.63971 -0.15261 12813 ft 316 kts 304°
2026-04-22 11:10 50.65135 -0.18207 12675 ft 315 kts 304°
2026-04-22 11:10 50.66293 -0.21141 12560 ft 315 kts 304°
2026-04-22 11:10 50.67452 -0.24079 12431 ft 315 kts 303°
2026-04-22 11:10 50.68592 -0.26974 12323 ft 315 kts 303°
2026-04-22 11:11 50.69751 -0.29920 12198 ft 315 kts 303°
2026-04-22 11:11 50.70902 -0.32852 12068 ft 314 kts 304°
2026-04-22 11:11 50.72048 -0.35772 11946 ft 314 kts 303°
2026-04-22 11:11 50.73197 -0.38701 11842 ft 314 kts 304°
2026-04-22 11:12 50.74352 -0.41651 11706 ft 314 kts 303°
2026-04-22 11:12 50.75493 -0.44568 11577 ft 314 kts 304°
2026-04-22 11:12 50.76640 -0.47503 11451 ft 313 kts 303°
2026-04-22 11:12 50.77782 -0.50430 11344 ft 312 kts 303°
2026-04-22 11:13 50.78911 -0.53328 11219 ft 310 kts 303°
2026-04-22 11:13 50.80030 -0.56204 11098 ft 304 kts 303°
2026-04-22 11:13 50.81117 -0.59001 10980 ft 296 kts 304°
2026-04-22 11:13 50.82186 -0.61757 10873 ft 288 kts 303°
2026-04-22 11:14 50.83212 -0.64404 10752 ft 281 kts 304°
2026-04-22 11:14 50.84226 -0.67023 10629 ft 273 kts 303°
2026-04-22 11:14 50.85214 -0.69579 10423 ft 272 kts 303°
2026-04-22 11:14 50.86266 -0.72049 10044 ft 271 kts 315°
2026-04-22 11:15 50.87753 -0.73733 9709 ft 264 kts 339°
2026-04-22 11:15 50.89449 -0.74908 9348 ft 263 kts 341°
2026-04-22 11:15 50.91121 -0.76068 9007 ft 262 kts 341°
2026-04-22 11:15 50.92796 -0.77237 8660 ft 261 kts 341°
2026-04-22 11:16 50.94463 -0.78401 8316 ft 261 kts 341°
2026-04-22 11:16 50.96120 -0.79561 7970 ft 260 kts 341°
2026-04-22 11:16 50.97754 -0.80706 7631 ft 260 kts 341°
2026-04-22 11:16 50.99400 -0.81861 7284 ft 259 kts 341°
2026-04-22 11:17 51.01054 -0.83024 6933 ft 258 kts 341°
2026-04-22 11:17 51.02718 -0.84191 6364 ft 267 kts 341°
2026-04-22 11:17 51.04427 -0.85392 5963 ft 266 kts 341°
2026-04-22 11:17 51.06041 -0.86532 5583 ft 265 kts 342°
2026-04-22 11:18 51.07732 -0.87727 5224 ft 263 kts 342°
2026-04-22 11:18 51.09385 -0.88897 4869 ft 260 kts 342°
2026-04-22 11:18 51.11038 -0.90068 4530 ft 256 kts 342°
2026-04-22 11:18 51.12664 -0.91221 4188 ft 253 kts 343°
2026-04-22 11:19 51.14280 -0.92368 3857 ft 249 kts 343°
2026-04-22 11:19 51.15836 -0.93474 3532 ft 246 kts 343°
2026-04-22 11:19 51.17408 -0.94592 3204 ft 243 kts 343°
2026-04-22 11:19 51.18963 -0.95586 2828 ft 237 kts 354°
2026-04-22 11:20 51.20510 -0.95524 2511 ft 208 kts 24°
2026-04-22 11:20 51.21748 -0.94525 2456 ft 196 kts 46°
2026-04-22 11:20 51.22550 -0.92855 2449 ft 190 kts 64°
2026-04-22 11:20 51.23145 -0.90987 2261 ft 185 kts 67°
2026-04-22 11:21 51.23689 -0.89276 1958 ft 157 kts 65°
2026-04-22 11:21 51.24166 -0.87842 1791 ft 142 kts 66°
2026-04-22 11:21 51.24623 -0.86459 1548 ft 139 kts 65°
2026-04-22 11:21 51.25073 -0.85103 1341 ft 134 kts 65°
2026-04-22 11:22 51.25481 -0.83889 1184 ft 117 kts 64°
2026-04-22 11:22 51.25858 -0.82764 953 ft 112 kts 65°
2026-04-22 11:22 51.26211 -0.81673 779 ft 111 kts 64°
2026-04-22 11:22 51.26571 -0.80595 616 ft 110 kts 63°
2026-04-22 11:23 51.26943 -0.79520 416 ft 111 kts 63°
2026-04-22 11:23 51.27313 -0.78431 249 ft 109 kts 63°
2026-04-22 11:23 51.27593 -0.77587 242 ft 36 kts 62°
2026-04-22 11:23 51.27655 -0.77400 242 ft 14 kts 62°
2026-04-22 11:24 51.27714 -0.77218 242 ft 22 kts 61°
2026-04-22 11:24 51.27817 -0.77003 242 ft 26 kts 33°
2026-04-22 11:24 51.27981 -0.76838 242 ft 26 kts 34°
2026-04-22 11:24 51.28059 -0.76803 242 ft 11 kts 296°
2026-04-22 11:25 51.28097 -0.76993 242 ft 24 kts 287°
2026-04-22 11:25 51.28153 -0.77277 242 ft 27 kts 288°
2026-04-22 11:25 51.28197 -0.77484 242 ft 9 kts 303°
2026-04-22 11:25 51.28215 -0.77612 242 ft 15 kts 284°
2026-04-22 11:26 51.28262 -0.77688 242 ft 5 kts 28°
2026-04-22 11:26 51.28270 -0.77673 242 ft 0 kts 64°